Location: OHP
(43.9325°N, 5.7154°E)
Time: 09:32:35
(UTC+01:00)

ARIANE 6 FM1 Upper Stage - Visible Passes

Search period start: 12 June 2026 00:00
Search period end: 22 June 2026 00:00
Orbit: 528 x 599 km, 62.0° (Epoch: 11 June)

Date Brightness Start Highest point End Pass type
(mag) Time Alt. Az. Time Alt. Az. Time Alt. Az.
12 Jun 4.8 00:42:12 16° E 00:42:12 16° E 00:43:50 10° ENE visible
12 Jun 3.1 02:18:09 35° WSW 02:19:36 54° NW 02:23:39 10° NNE visible
12 Jun 5.2 03:57:44 10° NW 03:59:25 12° NNW 04:01:07 10° N visible
13 Jun 4.3 00:41:16 23° E 00:41:16 23° E 00:43:38 10° ENE visible
13 Jun 3.7 02:17:13 26° W 02:19:00 39° NW 02:22:52 10° NNE visible
14 Jun 3.7 00:40:16 33° E 00:40:16 33° E 00:43:13 10° NE visible
14 Jun 4.2 02:16:12 18° W 02:18:25 29° NW 02:22:03 10° NNE visible
15 Jun 3.1 00:39:12 50° E 00:39:12 50° E 00:42:41 10° NE visible
15 Jun 4.7 02:15:08 13° W 02:17:53 23° NW 02:21:10 10° NNE visible
16 Jun 2.5 00:38:04 78° E 00:38:04 78° E 00:42:04 10° NE visible
16 Jun 5.0 02:14:29 10° WNW 02:17:23 18° NNW 02:20:14 10° N visible
17 Jun 2.7 00:36:49 65° W 00:37:15 73° NW 00:41:23 10° NE visible
17 Jun 5.3 02:14:35 10° WNW 02:16:54 14° NNW 02:19:12 10° N visible
17 Jun 4.7 22:59:34 16° E 22:59:34 16° E 23:00:55 10° ENE visible
18 Jun 3.3 00:35:29 39° W 00:36:36 51° NW 00:40:37 10° NNE visible
18 Jun 5.5 02:14:54 10° NW 02:16:28 12° NNW 02:18:01 10° N visible
18 Jun 4.0 22:58:06 25° E 22:58:06 25° E 23:00:40 10° ENE visible
19 Jun 4.0 00:33:59 23° W 00:35:58 37° NW 00:39:49 10° NNE visible
19 Jun 3.1 22:56:25 39° ESE 22:56:25 39° ESE 23:00:12 10° NE visible
20 Jun 4.5 00:32:18 13° W 00:35:22 28° NW 00:38:58 10° NNE visible
20 Jun 2.7 22:54:28 42° S 22:55:33 58° SE 22:59:38 10° NE visible
21 Jun 5.0 00:31:33 10° W 00:34:49 22° NW 00:38:03 10° NNE visible
21 Jun 2.5 22:52:01 21° SW 22:54:49 84° SE 22:58:58 10° NE visible
